Regional Weather Roundup
Issued by NWS

Home | Current Version | Previous Version | Text Only | Print | Product List | Glossary Off
Versions: 1 2 3 4 5 6 7 8 9 10 11 12 13 14 15 16 17 18 19 20 21 22 23 24 25 26 27 28 29 30 31 32 33 34 35 36 37 38 39 40 41 42 43 44 45 46 47 48 49 50

000
ASUS45 KSLC 302010
RWRUT

UTAH REGIONAL WEATHER ROUNDUP
NATIONAL WEATHER SERVICE SALT LAKE CITY UT
200 PM MDT TUE SEP 30 2014

UTZ001>011-023>025-302100-

NORTHERN UTAH

CITY           SKY/WX    TMP DP  RH WIND       PRES   REMARKS
HILL AFB       PTSUNNY   58  45  63 SW7       29.97F
LOGAN          NOT AVBL
OGDEN          CLOUDY    58  45  62 S8        29.95F
PROVO AIRPORT  PTSUNNY   63  41  45 VRB5      29.97F
SALT LAKE CITY PTSUNNY   63  41  44 N6        29.95F
VERNAL         PTSUNNY   56  44  64 E8        29.94F
WENDOVER       CLOUDY    63  45  51 E8        29.96F
HEBER CITY     PTSUNNY   61  39  44 SW14G21   29.97F
WEST JORDAN    CLOUDY    61  43  51 SE7       29.97F

$$

UTZ012>022-026-027-302100-

SOUTHERN UTAH

CITY           SKY/WX    TMP DP  RH WIND       PRES   REMARKS
BRYCE CANYON   MOSUNNY   58  36  43 NW7       30.08F
CEDAR CITY     SUNNY     65  33  30 W6        30.01F
MILFORD        SUNNY     65  40  39 SE6       29.98F
MOAB/CYNLANDS  SUNNY     65  42  43 N8        29.93F
PRICE          PTSUNNY   57  43  59 S8        29.99F
ST GEORGE      MOCLDY    75  41  29 W6        29.92F
KANAB            N/A     70  36  28 S12G17    30.01F

$$

REGIONAL REPORTS     COLORADO/ARIZONA

CITY           SKY/WX    TMP DP  RH WIND       PRES   REMARKS
CRAIG, CO      CLOUDY    57  38  48 W17G26    29.96F
GRAND JUNCTION CLOUDY    60  41  49 CALM      29.96F
RIFLE          CLOUDY    57  43  59 N5        29.97F
MONTROSE       CLOUDY    60  41  49 CALM      30.00F
CORTEZ         MOSUNNY   62  37  39 NW10      30.02F
PAGE, AZ       NOT AVBL
GRAND CANYON   SUNNY     64  36  35 W12G20    30.09F
KINGMAN        SUNNY     79  36  21 N5        29.95F
FLAGSTAFF      SUNNY     65  34  31 VRB6      30.10F

$$

REGIONAL REPORTS    NEVADA/IDAHO/WYOMING

CITY           SKY/WX    TMP DP  RH WIND       PRES   REMARKS
LAS VEGAS, NV  MOSUNNY   82  37  20 S7        29.84F
ELY            CLOUDY    63  34  33 SW12G20   30.02F
ELKO           CLOUDY    63  41  44 W17       29.98F
POCATELLO, ID  PTSUNNY   56  48  74 SW24G33   29.93S
BURLEY         MOSUNNY   57  43  59 W18G26    29.95S
EVANSTON, WY   CLOUDY    46  39  76 W15       30.02R
ROCK SPRINGS   CLOUDY    48  43  82 W22       29.94F

$$



USA.gov is the U.S. government's official web portal to all federal, state and local government web resources and services.